Location: ČR
(50.0000°N, 15.0000°E)
Time: 23:26:15
(UTC+01:00)

BlueWalker 3 - Pass Details

Date: 22 January 2026
Orbit: 450 x 461 km, 53.2° (Epoch: 14 February)

Event Time Altitude Azimuth Distance (km) Brightness Sun altitude
Rises 19:23:09 0° 241° (WSW) 2,449 6.4 -26.2°
Reaches altitude 10° 19:25:17 10° 239° (WSW) 1,579 5.2 -26.6°
Enters shadow 19:26:53 25° 236° (SW) 953 3.8 -26.8°
